Flight Track Log - Related Links

Times and Time Zones

All times are in EDT time to prevent confusion due to time zone crossing. See the ASH3770 flight status page for this flight to view local times or setup timezone preferences in your user account.

Time Position Orientation Groundspeed Altitude Reporting Facility
EDT Latitude Longitude Course Direction KTS MPH feet Rate Location/Type
Thu 05:27:30 PM 39.0000 -77.4667 290° West 198 228 2,600  Level Potomac TRACON
Thu 05:29:00 PM 39.1918 -77.5167 North  Level FlightAware Approximate
Thu 05:29:31 PM 39.1019 -77.5333 333° Northwest 230 265 8,000  Level Washington Center
Thu 05:30:00 PM 39.2814 -77.5388 344° North  Level FlightAware Approximate
Thu 05:30:29 PM 39.1639 -77.5806 329° Northwest 243 280 10,700  Level Washington Center
Thu 05:31:00 PM 39.3692 -77.5718 344° North  Level FlightAware Approximate
Thu 05:31:30 PM 39.2058 -77.6756 300° West 259 298 12,500  Level Washington Center
Thu 05:32:00 PM 39.4532 -77.5947 290° West  Level FlightAware Approximate
Thu 05:32:30 PM 39.2500 -77.7733 300° West 292 336 14,700  Level Washington Center
Thu 05:33:29 PM 39.3061 -77.8931 301° West 339 390 17,200 2,250 Climbing Washington Center
Thu 05:34:30 PM 39.3583 -77.9992 303° West 346 398 19,200 804 Climbing Washington Center
Thu 05:36:58 PM 39.4981 -78.2992 301° West 379 436 20,000 231 Climbing Cleveland Center
Thu 05:37:58 PM 39.5525 -78.4186 301° West 392 451 20,000  Level Cleveland Center
Thu 05:38:58 PM 39.6069 -78.5381 301° West 392 451 20,000  Level Cleveland Center
Thu 05:39:58 PM 39.6611 -78.6603 300° West 392 451 20,000  Level Cleveland Center
Thu 05:40:58 PM 39.7217 -78.7856 302° West 397 457 20,000  Level Cleveland Center
Thu 05:41:58 PM 39.7711 -78.8978 300° West 397 457 20,000 -600 Level Cleveland Center
Thu 05:42:58 PM 39.8336 -79.0367 300° West 397 457 18,800 -1,350 Descending Cleveland Center
Thu 05:43:58 PM 39.8894 -79.1600 301° West 402 463 17,300 -1,550 Descending Cleveland Center
Thu 05:44:58 PM 39.9431 -79.2806 300° West 396 456 15,700 -1,600 Descending Cleveland Center
Thu 05:45:58 PM 40.0006 -79.3933 304° West 396 456 14,100 -1,650 Descending Cleveland Center
Thu 05:46:58 PM 40.0642 -79.5008 308° West 385 443 12,400 -1,800 Descending Cleveland Center
Thu 05:47:58 PM 40.1297 -79.5975 312° West 373 429 10,500 -1,200 Descending Cleveland Center
Thu 05:48:58 PM 40.1950 -79.6833 315° West 354 407 10,000 -450 Descending Cleveland Center
Thu 05:49:58 PM 40.2558 -79.7561 318° Northwest 321 369 9,600 -1,200 Descending Cleveland Center
Thu 05:50:58 PM 40.3064 -79.8261 313° West 287 330 7,600 -1,950 Descending Cleveland Center
Thu 05:51:58 PM 40.3550 -79.8992 311° West 273 314 5,700 -1,650 Descending Cleveland Center
Thu 05:52:58 PM 40.4033 -79.9669 313° West 261 300 4,300 -850 Descending Cleveland Center
Thu 05:53:58 PM 40.4453 -80.0347 309° West 250 288 4,000 -300 Descending Cleveland Center

Login

Don't have an account? Register now (free) for customized features, flight alerts, and more!